Weather History for Rutherfordton, NC

Change the Weather History Date:

Saturday, January 18, 2014

  Actual Average (KAVL) Record (KAVL)
Temperature  
Mean Temperature 30 °F 37 °F  
Max Temperature 39 °F 47 °F 72 °F (1933)
Min Temperature 22 °F 26 °F 0 °F (1994)
Degree Days  
Heating Degree Days 34 28  
Month to date heating degree days 504  
Since 1 July heating degree days 2165  
Cooling Degree Days 0 0  
Month to date cooling degree days 0  
Year to date cooling degree days 0  
Moisture  
Dew Point 11 °F    
Average Humidity 43    
Maximum Humidity 56    
Minimum Humidity 32    
Precipitation  
Precipitation 0.00 in 0.12 in 2.26 in (1936)
Month to date precipitation 2.08  
Year to date precipitation 2.08  
Snow  
Snow 0.00 in 0.20 in 1.20 in (1955)
Month to date snowfall 2.4  
Since 1 July snowfall 3.4  
Snow Depth -    
Sea Level Pressure  
Sea Level Pressure 29.99 in    
Wind  
Wind Speed 8 mph (WSW)    
Max Wind Speed 15 mph    
Max Gust Speed 24 mph    
Visibility 10 miles    
Events      
T = Trace of Precipitation, MM = Missing Value Source: NWS Daily Summary

Daily Weather History Graph

Daily Weather History Graph

Search for Another Location

Airport:

Trip Planner

Search our weather history database for the weather conditions in past years. The results will help you decide how hot, cold, wet, or windy it might be!

Date:

Astronomy

Jan. 18, 2014 Rise Set
Actual Time 7:35 AM EST 5:41 PM EST
Civil Twilight 7:07 AM EST 6:08 PM EST
Nautical Twilight 6:36 AM EST 6:40 PM EST
Astronomical Twilight 6:06 AM EST 7:10 PM EST
Moon 8:15 PM EST (1/18) 8:40 AM EST (1/18)
Length of Visible Light 11h 01m
Length of Day
10h 06m
Waning Gibbous, 94% of the Moon is Illuminated
Jan 18
Waning Gibbous
Jan 24
Last Quarter
Jan 30
New
Feb 6
First Quarter
Feb 14
Full

Hourly Weather History & Observations

Time (EST) Temp. Windchill Dew Point Humidity Pressure Visibility Wind Dir Wind Speed Gust Speed Precip Events Conditions
12:15 AM 32.4 °F 24.6 °F 16.9 °F 53% 29.92 in 10.0 mi NW 9.2 mph - N/A   Mostly Cloudy
12:35 AM 32.0 °F 23.0 °F 16.0 °F 52% 29.92 in 10.0 mi WNW 11.5 mph 19.6 mph N/A   Scattered Clouds
12:55 AM 30.9 °F 24.3 °F 15.6 °F 53% 29.92 in 10.0 mi WNW 6.9 mph - N/A   Clear
1:15 AM 29.8 °F 24.9 °F 14.9 °F 54% 29.92 in 10.0 mi WNW 4.6 mph - N/A   Clear
1:35 AM 29.3 °F 21.5 °F 15.3 °F 56% 29.92 in 10.0 mi West 8.1 mph - N/A   Clear
1:55 AM 29.5 °F 18.8 °F 13.6 °F 52% 29.92 in 10.0 mi WNW 13.8 mph 19.6 mph N/A   Clear
2:15 AM 29.1 °F 18.4 °F 10.2 °F 45% 29.94 in 10.0 mi WNW 13.8 mph 23.0 mph N/A   Clear
2:35 AM 28.4 °F 19.7 °F 9.0 °F 44% 29.94 in 10.0 mi WNW 9.2 mph 19.6 mph N/A   Scattered Clouds
2:55 AM 27.7 °F 17.6 °F 8.6 °F 45% 29.94 in 10.0 mi WNW 11.5 mph - N/A   Scattered Clouds
3:15 AM 27.5 °F 18.6 °F 8.8 °F 45% 29.94 in 10.0 mi WNW 9.2 mph 17.3 mph N/A   Scattered Clouds
3:35 AM 26.4 °F 16.6 °F 10.2 °F 51% 29.95 in 10.0 mi West 10.4 mph - N/A   Scattered Clouds
3:55 AM 26.4 °F 16.0 °F 9.9 °F 50% 29.95 in 10.0 mi WNW 11.5 mph 24.2 mph N/A   Clear
4:15 AM 25.7 °F 15.1 °F 9.9 °F 51% 29.95 in 10.0 mi WNW 11.5 mph 18.4 mph N/A   Clear
4:35 AM 25.7 °F 16.4 °F 9.3 °F 50% 29.96 in 10.0 mi West 9.2 mph 19.6 mph N/A   Clear
4:55 AM 25.5 °F 14.3 °F 8.8 °F 49% 29.96 in 10.0 mi WNW 12.7 mph 19.6 mph N/A   Clear
5:15 AM 25.2 °F 13.3 °F 8.4 °F 49% 29.97 in 10.0 mi West 13.8 mph 20.7 mph N/A   Clear
5:35 AM 24.8 °F 14.0 °F 7.9 °F 49% 29.98 in 10.0 mi West 11.5 mph 17.3 mph N/A   Clear
5:55 AM 24.6 °F 14.4 °F 7.5 °F 48% 29.98 in 10.0 mi WNW 10.4 mph - N/A   Clear
6:15 AM 24.1 °F 16.0 °F 7.7 °F 50% 29.99 in 10.0 mi West 6.9 mph - N/A   Clear
6:35 AM 23.7 °F 14.7 °F 7.7 °F 51% 29.99 in 10.0 mi WNW 8.1 mph - N/A   Scattered Clouds
6:55 AM 23.2 °F 15.0 °F 7.7 °F 52% 29.98 in 10.0 mi WNW 6.9 mph - N/A   Mostly Cloudy
7:15 AM 22.8 °F 16.7 °F 7.3 °F 52% 29.99 in 10.0 mi WNW 4.6 mph - N/A   Scattered Clouds
7:35 AM 23.4 °F - 6.8 °F 49% 30.00 in 10.0 mi Calm Calm - N/A   Clear
7:55 AM 22.3 °F - 7.5 °F 53% 30.02 in 10.0 mi Calm Calm - N/A   Clear
8:15 AM 23.2 °F 18.7 °F 8.4 °F 53% 30.02 in 10.0 mi South 3.5 mph - N/A   Clear
8:35 AM 25.3 °F - 8.6 °F 49% 30.04 in 10.0 mi Calm Calm - N/A   Clear
8:55 AM 26.8 °F 21.4 °F 9.1 °F 47% 30.04 in 10.0 mi West 4.6 mph - N/A   Clear
9:15 AM 27.1 °F 21.8 °F 8.4 °F 45% 30.06 in 10.0 mi West 4.6 mph - N/A   Clear
9:35 AM 28.6 °F 19.3 °F 8.8 °F 43% 30.07 in 10.0 mi West 10.4 mph - N/A   Clear
9:55 AM 29.5 °F 22.5 °F 8.8 °F 42% 30.07 in 10.0 mi West 6.9 mph - N/A   Clear
10:15 AM 30.0 °F 23.2 °F 8.6 °F 41% 30.08 in 10.0 mi West 6.9 mph - N/A   Clear
10:35 AM 30.9 °F 23.5 °F 8.8 °F 40% 30.09 in 10.0 mi SSW 8.1 mph - N/A   Clear
10:55 AM 32.0 °F 25.6 °F 9.5 °F 39% 30.09 in 10.0 mi West 6.9 mph - N/A   Clear
11:15 AM 32.2 °F 28.9 °F 9.1 °F 38% 30.09 in 10.0 mi West 3.5 mph - N/A   Clear
11:35 AM 32.9 °F 26.7 °F 10.0 °F 39% 30.08 in 10.0 mi West 6.9 mph - N/A   Clear
11:55 AM 33.4 °F 27.3 °F 10.6 °F 39% 30.07 in 10.0 mi West 6.9 mph - N/A   Clear
12:15 PM 34.0 °F 25.5 °F 11.3 °F 39% 30.05 in 10.0 mi NNW 11.5 mph - N/A   Clear
12:35 PM 36.0 °F 26.7 °F 11.8 °F 37% 30.04 in 10.0 mi West 15.0 mph 18.4 mph N/A   Clear
12:55 PM 36.3 °F 30.8 °F 12.2 °F 37% 30.03 in 10.0 mi West 6.9 mph - N/A   Clear
1:15 PM 37.8 °F 30.2 °F 12.4 °F 35% 30.02 in 10.0 mi WSW 11.5 mph - N/A   Clear
1:35 PM 37.8 °F 31.3 °F 12.7 °F 36% 30.02 in 10.0 mi West 9.2 mph - N/A   Clear
1:55 PM 37.9 °F 31.5 °F 12.4 °F 35% 30.02 in 10.0 mi West 9.2 mph - N/A   Clear
2:15 PM 39.4 °F 34.5 °F 13.1 °F 34% 30.00 in 10.0 mi NW 6.9 mph - N/A   Clear
2:35 PM 39.0 °F 34.8 °F 12.0 °F 33% 29.99 in 10.0 mi West 5.8 mph - N/A   Clear
2:55 PM 39.2 °F 33.6 °F 12.4 °F 33% 29.99 in 10.0 mi SSW 8.1 mph - N/A   Clear
3:15 PM 38.7 °F - 12.2 °F 34% 29.98 in 10.0 mi Calm Calm - N/A   Clear
3:35 PM 39.4 °F 35.2 °F 11.8 °F 32% 29.99 in 10.0 mi SW 5.8 mph - N/A   Clear
3:55 PM 39.0 °F 32.8 °F 12.2 °F 33% 29.99 in 10.0 mi South 9.2 mph - N/A   Clear
4:15 PM 39.2 °F 33.6 °F 12.2 °F 33% 30.00 in 10.0 mi SSW 8.1 mph - N/A   Clear
4:35 PM 38.8 °F 31.6 °F 12.4 °F 34% 30.00 in 10.0 mi SSW 11.5 mph 16.1 mph N/A   Clear
4:55 PM 38.7 °F 34.3 °F 12.4 °F 34% 29.99 in 10.0 mi South 5.8 mph - N/A   Clear
5:15 PM 37.9 °F 32.7 °F 12.0 °F 35% 29.99 in 10.0 mi South 6.9 mph - N/A   Clear
5:35 PM 37.2 °F 31.9 °F 11.8 °F 35% 29.98 in 10.0 mi South 6.9 mph - N/A   Clear
5:55 PM 35.2 °F 28.8 °F 12.4 °F 39% 29.99 in 10.0 mi South 8.1 mph - N/A   Clear
6:15 PM 35.2 °F 29.5 °F 11.8 °F 38% 29.99 in 10.0 mi South 6.9 mph - N/A   Clear
6:35 PM 34.7 °F 28.1 °F 12.2 °F 39% 29.99 in 10.0 mi South 8.1 mph - N/A   Clear
6:55 PM 34.7 °F 30.6 °F 12.6 °F 40% 29.99 in 10.0 mi South 4.6 mph - N/A   Clear
7:15 PM 34.2 °F 28.2 °F 12.6 °F 41% 29.99 in 10.0 mi South 6.9 mph - N/A   Clear
7:35 PM 33.8 °F 28.6 °F 12.6 °F 42% 29.98 in 10.0 mi South 5.8 mph - N/A   Clear
7:55 PM 33.4 °F 27.3 °F 12.2 °F 42% 29.98 in 10.0 mi South 6.9 mph - N/A   Clear
8:15 PM 33.3 °F 27.1 °F 12.0 °F 41% 29.97 in 10.0 mi South 6.9 mph - N/A   Clear
8:35 PM 33.3 °F 28.9 °F 11.8 °F 41% 29.97 in 10.0 mi SSW 4.6 mph - N/A   Scattered Clouds
8:55 PM 32.9 °F 28.5 °F 11.7 °F 41% 29.96 in 10.0 mi SSW 4.6 mph - N/A   Scattered Clouds
9:15 PM 32.9 °F 28.5 °F 11.3 °F 41% 29.96 in 10.0 mi SSW 4.6 mph - N/A   Scattered Clouds
9:35 PM 33.3 °F 28.9 °F 11.7 °F 41% 29.99 in 10.0 mi WSW 4.6 mph - N/A   Mostly Cloudy
9:55 PM 32.5 °F 26.2 °F 11.3 °F 41% 29.99 in 10.0 mi SSW 6.9 mph - N/A   Scattered Clouds
10:15 PM 32.7 °F 28.3 °F 11.3 °F 41% 29.98 in 10.0 mi SSW 4.6 mph - N/A   Mostly Cloudy
10:35 PM 32.9 °F 27.5 °F 11.5 °F 41% 29.98 in 10.0 mi SSW 5.8 mph - N/A   Overcast
10:55 PM 33.3 °F 27.9 °F 11.3 °F 40% 29.97 in 10.0 mi SSW 5.8 mph - N/A   Overcast
11:15 PM 33.3 °F 27.9 °F 11.3 °F 40% 29.97 in 10.0 mi SW 5.8 mph - N/A   Mostly Cloudy
11:35 PM 34.2 °F 29.0 °F 10.4 °F 37% 29.96 in 10.0 mi SW 5.8 mph - N/A   Scattered Clouds
11:55 PM 34.7 °F 31.8 °F 10.2 °F 36% 29.95 in 10.0 mi SW 3.5 mph - N/A   Clear